Weather History for Acapulco, Mexico

Change the Weather History Date:

Friday, November 9, 2012

  Actual Average Record
Temperature  
Mean Temperature 84 °F -  
Max Temperature 92 °F 90 °F 93 °F (1996)
Min Temperature 75 °F 73 °F 46 °F (2006)
Cooling Degree Days 18    
Growing Degree Days 34 (Base 50)    
Moisture  
Dew Point 75 °F    
Average Humidity 76    
Maximum Humidity 94    
Minimum Humidity 55    
Precipitation  
Precipitation 0.00 in 0.05 in - ()
Sea Level Pressure  
Sea Level Pressure 29.87 in    
Wind  
Wind Speed 3 mph ()    
Max Wind Speed 18 mph    
Max Gust Speed -    
Visibility 8.5 miles    
Events      
Averages and records for this station are not official NWS values.
T = Trace of Precipitation, MM = Missing Value Source: Averaged Metar Reports

Daily Weather History Graph

Daily Weather History Graph

Search for Another Location

Airport:

Trip Planner

Search our weather history database for the weather conditions in past years. The results will help you decide how hot, cold, wet, or windy it might be!

Date:

Astronomy

Nov. 09, 2012 Rise Set
Actual Time 6:40 AM CST 6:05 PM CST
Civil Twilight 6:17 AM CST 6:27 PM CST
Nautical Twilight 5:51 AM CST 6:53 PM CST
Astronomical Twilight 5:26 AM CST 7:19 PM CST
Moon 2:21 AM CST (11/9) 2:44 PM CST (11/9)
Length of Visible Light 12h 09m
Length of Day
11h 24m
Waning Crescent, 23% of the Moon is Illuminated
Nov 9
Waning Crescent
Nov 13
New
Nov 20
First Quarter
Nov 28
Full
Dec 6
Last Quarter

Hourly Weather History & Observations

Time (CST) Temp. Heat Index Dew Point Humidity Pressure Visibility Wind Dir Wind Speed Gust Speed Precip Events Conditions
12:00 AM 78 °F - 76 °F 94% 29.90 in 6 mi SE 2.2 mph - -  
12:42 AM 78.8 °F - 75.2 °F 89% 29.89 in 8.0 mi Calm Calm - N/A   Clear
1:42 AM 78.8 °F - 75.2 °F 89% 29.89 in 8.0 mi Calm Calm - N/A   Clear
2:45 AM 77 °F - 74 °F 90% 29.86 in 12 mi East 2.2 mph - -   Scattered Clouds
2:45 AM 77.0 °F - 73.4 °F 89% 29.87 in 8.0 mi Calm Calm - N/A   Clear
3:42 AM 77.0 °F - 73.4 °F 89% 29.88 in 8.0 mi Calm Calm - N/A   Clear
4:43 AM 77.0 °F - 73.4 °F 89% 29.86 in 8.0 mi Calm Calm - N/A   Clear
5:45 AM 76 °F - 73 °F 88% 29.87 in 12 mi West 2.2 mph - -   Scattered Clouds
5:50 AM 77.0 °F - 73.4 °F 89% 29.83 in 8.0 mi Calm Calm - N/A   Clear
6:43 AM 77.0 °F - 73.4 °F 89% 29.87 in 8.0 mi Calm Calm - N/A   Clear
7:44 AM 78.8 °F - 73.4 °F 83% 29.89 in 7.0 mi Calm Calm - N/A   Clear
8:45 AM 82.4 °F 88.2 °F 73.4 °F 74% 29.92 in 7.0 mi Calm Calm - N/A   Scattered Clouds
8:50 AM 80 °F - 72 °F 71% 29.91 in 12 mi WNW 17.9 mph - -   Partly Cloudy
9:42 AM 84.2 °F 90.9 °F 73.4 °F 70% 29.91 in 7.0 mi Calm Calm - N/A   Scattered Clouds
10:44 AM 86.0 °F 95.1 °F 75.2 °F 70% 29.90 in 8.0 mi Calm Calm - N/A   Scattered Clouds
11:42 AM 87.8 °F 97.6 °F 75.2 °F 66% 29.85 in 8.0 mi WSW 6.9 mph - N/A   Mostly Cloudy
11:50 AM 89 °F - 75 °F 55% 29.88 in 12 mi SSW 4.5 mph - -   Scattered Clouds
12:47 PM 89.6 °F 102.2 °F 77.0 °F 66% 29.85 in 8.0 mi WSW 6.9 mph - N/A   Mostly Cloudy
1:42 PM 89.6 °F 99.8 °F 75.2 °F 62% 29.82 in 8.0 mi SW 5.8 mph - N/A   Mostly Cloudy
2:50 PM 89 °F - 76 °F 57% 29.79 in 12 mi SW 17.9 mph - -   Scattered Clouds
2:50 PM 89.6 °F 99.8 °F 75.2 °F 62% 29.81 in 8.0 mi WSW 9.2 mph - N/A   Mostly Cloudy
3:48 PM 87.8 °F 97.6 °F 75.2 °F 66% 29.80 in 8.0 mi SW 9.2 mph - N/A   Clear
4:42 PM 87.8 °F 97.6 °F 75.2 °F 66% 29.80 in 8.0 mi SSW 9.2 mph - N/A   Unknown
5:45 PM 87.8 °F 97.6 °F 75.2 °F 66% 29.79 in 8.0 mi SSW 9.2 mph - N/A   Scattered Clouds
5:50 PM 85 °F - 76 °F 67% 29.81 in 12 mi West 4.5 mph - -   Scattered Clouds
6:46 PM 86.0 °F 96.9 °F 77.0 °F 74% 29.84 in 8.0 mi SSW 6.9 mph - N/A   Scattered Clouds
7:46 PM 86.0 °F 96.9 °F 77.0 °F 74% 29.84 in 8.0 mi SSW 6.9 mph - N/A   Scattered Clouds
8:45 PM 84.2 °F 92.3 °F 75.2 °F 74% 29.91 in 8.0 mi Calm Calm - N/A   Scattered Clouds
8:50 PM 81 °F - 76 °F 82% 29.89 in 6 mi North 4.5 mph - -   Scattered Clouds
9:45 PM 84.2 °F 92.3 °F 75.2 °F 74% 29.90 in 8.0 mi Calm Calm - N/A   Scattered Clouds
10:45 PM 84.2 °F 92.3 °F 75.2 °F 74% 29.91 in 8.0 mi Calm Calm - N/A   Scattered Clouds
11:45 PM 80.6 °F 86.2 °F 75.2 °F 84% 29.93 in 8.0 mi Calm Calm - N/A   Scattered Clouds
11:50 PM 78 °F - 76 °F 92% 29.90 in 6 mi West 4.5 mph - -   Scattered Clouds